Date String (YYYY-MM-DD hh:mm:ss) UTC,Instrument flags,absolute air pressure of the measurement (hPa),sample flow rate (lpm),inlet stack bypass flow (lpm),air temperature of the measurement (°C),ambient temperature measured by the external sensor (°C),aerosol sample conditioner tube jacket temperature (°C),OPC LED temperature (°C),internal box temperature (°C),relative humidity of the measurement (%),span deviation,mass concentration of particles derived from Lorenz-Mie calculation of OPC scattering (μg/m³),mass concentration of particles derived from Lorenz-Mie calculation of OPC scattering (μg/m³),mass concentration of particles derived from Lorenz-Mie calculation of OPC scattering (μg/m³)
DateTimeUTC,F1_M11,P_M11,Q1_M11,Q2_M11,T1_M11,T2_M11,T3_M11,T4_M11,T5_M11,U1_M11,ZSPAN_M11,X2_M11,X0_M11,X1_M11
2024-02-09 16:00:00,SystemResetWarning,0822.9,5.01,000.00,018.3,017.6,000.0,026.9,020.0,17.8,0000.0,0004.05,0008.32,0003.75
2024-02-09 16:01:00,SystemResetWarning,0822.6,5.02,000.00,018.3,017.6,000.0,026.9,020.0,17.9,0000.0,0004.09,0008.53,0003.77
2024-02-09 16:02:00,SystemResetWarning,0822.9,4.99,000.00,018.3,017.6,000.0,026.9,020.0,17.9,0000.0,0004.11,0008.74,0003.79
2024-02-09 16:03:00,SystemResetWarning,0823.0,5.00,000.00,018.3,017.6,000.0,026.9,020.0,17.9,0000.0,0004.12,0009.07,0003.82
2024-02-09 16:04:00,SystemResetWarning,0822.6,5.00,000.00,018.3,017.6,000.0,026.9,020.0,18.1,0000.0,0004.12,0009.05,0003.84
2024-02-09 16:05:00,SystemResetWarning,0822.7,4.99,000.00,018.3,017.6,000.0,026.9,020.0,18.0,0000.0,0004.13,0009.03,0003.87
2024-02-09 16:06:00,SystemResetWarning,0823.1,4.99,000.00,018.3,017.6,000.0,026.9,020.0,18.0,0000.0,0004.17,0009.07,0003.89
2024-02-09 16:07:00,SystemResetWarning,0822.8,5.00,000.00,018.3,017.6,000.0,026.9,020.0,18.2,0000.0,0004.20,0009.13,0003.90
2024-02-09 16:08:00,SystemResetWarning,0822.7,5.00,000.00,018.3,017.6,000.0,026.8,020.0,18.1,0000.0,0004.24,0009.53,0003.93
2024-02-09 16:09:00,SystemResetWarning,0822.5,5.00,000.00,018.3,017.6,000.0,026.8,020.0,18.2,0000.0,0004.29,0009.59,0003.95
2024-02-09 16:10:00,SystemResetWarning,0822.6,5.00,000.00,018.3,017.6,000.0,026.8,020.0,18.1,0000.0,0004.32,0009.08,0003.97
2024-02-09 16:11:00,SystemResetWarning,0822.8,5.00,000.00,018.3,017.6,000.0,026.8,020.0,18.3,0000.0,0004.32,0008.31,0003.98
2024-02-09 16:12:00,SystemResetWarning,0823.0,5.01,000.00,018.3,017.6,000.0,026.8,020.0,18.4,0000.0,0004.34,0008.16,0004.00
2024-02-09 16:13:00,SystemResetWarning,0822.9,5.00,000.00,018.3,017.6,000.0,026.8,020.0,18.3,0000.0,0004.36,0008.31,0004.02
2024-02-09 16:14:00,SystemResetWarning,0823.1,4.99,000.00,018.3,017.6,000.0,026.8,020.0,18.3,0000.0,0004.37,0008.18,0004.05
2024-02-09 16:15:00,SystemResetWarning,0823.1,4.99,000.00,018.3,017.6,000.0,026.8,020.0,18.4,0000.0,0004.41,0008.19,0004.07
2024-02-09 16:16:00,SystemResetWarning,0823.0,5.00,000.00,018.3,017.6,000.0,026.8,020.0,18.3,0000.0,0004.44,0008.25,0004.09
2024-02-09 16:17:00,SystemResetWarning,0822.9,5.01,000.00,018.3,017.6,000.0,026.8,020.0,18.2,0000.0,0004.44,0008.36,0004.11
2024-02-09 16:18:00,SystemResetWarning,0822.8,5.00,000.00,018.3,017.7,000.0,026.8,020.0,18.2,0000.0,0004.43,0008.39,0004.12
2024-02-09 16:19:00,SystemResetWarning,0822.6,5.00,000.00,018.3,017.7,000.0,026.8,020.0,18.1,0000.0,0004.43,0008.12,0004.13
2024-02-09 16:20:00,SystemResetWarning,0822.7,5.00,000.00,018.3,017.7,000.0,026.8,020.0,18.3,0000.0,0004.43,0008.01,0004.15
2024-02-09 16:21:00,SystemResetWarning,0822.5,5.00,000.00,018.3,017.7,000.0,026.8,020.0,18.2,0000.0,0004.43,0007.92,0004.17
2024-02-09 16:22:00,SystemResetWarning,0822.8,5.00,000.00,018.3,017.7,000.0,026.8,020.0,18.3,0000.0,0004.43,0007.90,0004.18
2024-02-09 16:23:00,SystemResetWarning,0822.6,4.99,000.00,018.3,017.7,000.0,026.8,020.0,17.8,0000.0,0004.44,0007.91,0004.21
2024-02-09 16:24:00,SystemResetWarning,0822.6,5.00,000.00,018.3,017.7,000.0,026.8,020.0,17.4,0000.0,0004.45,0007.58,0004.23
2024-02-09 16:25:00,SystemResetWarning,0822.6,5.00,000.00,018.3,017.7,000.0,026.8,020.0,17.6,0000.0,0004.46,0007.26,0004.23
2024-02-09 16:26:00,SystemResetWarning,0822.8,5.00,000.00,018.3,017.7,000.0,026.8,020.0,17.7,0000.0,0004.46,0007.27,0004.22
2024-02-09 16:27:00,SystemResetWarning,0822.9,5.01,000.00,018.3,017.7,000.0,026.8,020.0,17.8,0000.0,0004.44,0007.21,0004.21
2024-02-09 16:28:00,SystemResetWarning,0822.8,5.01,000.00,018.3,017.7,000.0,026.8,020.0,18.0,0000.0,0004.43,0007.26,0004.19
2024-02-09 16:29:00,SystemResetWarning,0822.7,5.00,000.00,018.3,017.7,000.0,026.8,020.0,18.3,0000.0,0004.44,0008.06,0004.18
2024-02-09 16:30:00,SystemResetWarning,0822.7,4.99,000.00,018.3,017.7,000.0,026.8,020.0,18.5,0000.0,0004.44,0008.04,0004.18
2024-02-09 16:31:00,SystemResetWarning,0822.7,4.99,000.00,018.3,017.6,000.0,026.8,020.0,18.5,0000.0,0004.44,0008.09,0004.17
2024-02-09 16:32:00,SystemResetWarning,0822.7,5.00,000.00,018.3,017.6,000.0,026.8,020.0,17.7,0000.0,0004.44,0008.23,0004.16
2024-02-09 16:33:00,SystemResetWarning,0822.7,5.01,000.00,018.3,017.6,000.0,026.8,020.0,17.7,0000.0,0004.46,0008.52,0004.16
2024-02-09 16:34:00,SystemResetWarning,0822.7,5.01,000.00,018.3,017.6,000.0,026.8,020.0,17.9,0000.0,0004.45,0008.48,0004.15
2024-02-09 16:35:00,SystemResetWarning,0822.7,4.98,000.00,018.3,017.6,000.0,026.8,020.0,18.1,0000.0,0004.43,0008.47,0004.11
2024-02-09 16:36:00,SystemResetWarning,0822.7,5.00,000.00,018.3,017.6,000.0,026.8,020.0,17.8,0000.0,0004.38,0008.41,0004.07
2024-02-09 16:37:00,SystemResetWarning,0822.7,5.02,000.00,018.3,017.6,000.0,026.8,020.0,17.9,0000.0,0004.34,0008.37,0004.03
2024-02-09 16:38:00,SystemResetWarning,0822.7,5.00,000.00,018.3,017.6,000.0,026.8,020.0,18.0,0000.0,0004.30,0008.30,0004.01
2024-02-09 16:39:00,SystemResetWarning,0822.8,4.99,000.00,018.3,017.6,000.0,026.8,020.0,18.1,0000.0,0004.26,0008.09,0003.98
2024-02-09 16:40:00,SystemResetWarning,0822.8,5.00,000.00,018.3,017.6,000.0,026.8,020.0,18.0,0000.0,0004.19,0007.07,0003.95
2024-02-09 16:41:00,SystemResetWarning,0822.8,5.01,000.00,018.3,017.6,000.0,026.8,020.0,18.0,0000.0,0004.16,0006.99,0003.91
2024-02-09 16:42:00,SystemResetWarning,0822.9,5.01,000.00,018.3,017.6,000.0,026.8,020.0,17.9,0000.0,0004.12,0006.83,0003.88
2024-02-09 16:43:00,SystemResetWarning,0822.8,5.01,000.00,018.3,017.6,000.0,026.8,020.0,18.0,0000.0,0004.10,0006.75,0003.85
2024-02-09 16:44:00,SystemResetWarning,0823.2,4.99,000.00,018.3,017.6,000.0,026.8,020.0,18.3,0000.0,0004.03,0006.16,0003.81
2024-02-09 16:45:00,SystemResetWarning,0823.2,5.00,000.00,018.3,017.5,000.0,026.8,020.0,18.4,0000.0,0003.99,0006.12,0003.76
2024-02-09 16:46:00,SystemResetWarning,0823.4,4.99,000.00,018.3,017.5,000.0,026.8,020.0,18.4,0000.0,0003.95,0006.03,0003.74
2024-02-09 16:47:00,SystemResetWarning,0823.0,5.00,000.00,018.3,017.5,000.0,026.9,020.0,18.6,0000.0,0003.97,0006.27,0003.74
2024-02-09 16:48:00,SystemResetWarning,0822.9,5.00,000.00,018.3,017.5,000.0,026.9,020.0,18.7,0000.0,0003.98,0006.55,0003.74
2024-02-09 16:49:00,SystemResetWarning,0823.1,5.00,000.00,018.3,017.5,000.0,026.9,020.0,18.8,0000.0,0003.99,0006.84,0003.74
2024-02-09 16:50:00,SystemResetWarning,0822.9,5.00,000.00,018.3,017.5,000.0,026.9,020.0,18.5,0000.0,0003.98,0006.73,0003.73
2024-02-09 16:51:00,SystemResetWarning,0822.9,5.00,000.00,018.3,017.5,000.0,026.9,020.0,18.4,0000.0,0004.00,0006.93,0003.74
2024-02-09 16:52:00,SystemResetWarning,0822.9,5.00,000.00,018.3,017.5,000.0,026.9,020.0,18.3,0000.0,0004.01,0007.15,0003.74
2024-02-09 16:53:00,SystemResetWarning,0823.0,5.00,000.00,018.3,017.5,000.0,026.9,020.0,18.2,0000.0,0003.99,0007.46,0003.74
2024-02-09 16:54:00,SystemResetWarning,0823.0,5.00,000.00,018.3,017.6,000.0,026.9,020.0,18.4,0000.0,0004.00,0007.70,0003.74
2024-02-09 16:55:00,SystemResetWarning,0823.2,5.00,000.00,018.3,017.6,000.0,026.9,020.0,18.6,0000.0,0004.01,0007.69,0003.75
2024-02-09 16:56:00,SystemResetWarning,0823.0,5.01,000.00,018.3,017.6,000.0,026.9,020.0,18.4,0000.0,0004.03,0007.67,0003.78
2024-02-09 16:57:00,SystemResetWarning,0823.2,5.01,000.00,018.3,017.6,000.0,026.9,020.0,18.3,0000.0,0004.06,0008.20,0003.80
2024-02-09 16:58:00,SystemResetWarning,0823.0,5.00,000.00,018.3,017.6,000.0,026.9,020.0,18.4,0000.0,0004.09,0008.21,0003.82
2024-02-09 16:59:00,SystemResetWarning,0823.0,4.99,000.00,018.3,017.6,000.0,026.9,020.0,18.6,0000.0,0004.13,0008.22,0003.86
